N7NKE Weather Reports


Display with metric or nautical units.
time (UTC)temp
F
wind
direction
speed
MPH
gust
MPH
rain 1hr
in
rain 24hr
in
rain mn
in
humidity
%
barometer
mb
20260504012004 92 94 1.0 2.0 0.00 0.00 0.00 28 1006.6
20260504011504 92 94 1.0 2.0 0.00 0.00 0.00 24 1006.6
20260504011005 92 94 0.0 2.0 0.00 0.00 0.00 27 1006.7
20260504010504 92 94 1.0 2.0 0.00 0.00 0.00 25 1006.7
20260504010004 91 94 0.0 2.0 0.00 0.00 0.00 22 1006.8
20260504005504 91 94 1.0 2.0 0.00 0.00 0.00 23 1006.9
20260504005005 92 94 1.0 2.0 0.00 0.00 0.00 24 1006.9
20260504004005 91 94 1.0 2.0 0.00 0.00 0.00 22 1007.0
20260504003005 91 86 1.0 2.0 0.00 0.00 0.00 22 1007.0
20260504002505 91 102 1.0 1.0 0.00 0.00 0.00 24 1007.0
20260504002004 92 102 1.0 1.0 0.00 0.00 0.00 26 1007.0
20260504001005 92 338 2.0 2.0 0.00 0.00 0.00 22 1007.1
20260504000505 92 18 1.0 2.0 0.00 0.00 0.00 25 1007.1
20260504000004 92 319 1.0 2.0 0.00 0.00 0.00 21 1007.2
20260503235505 91 299 2.0 2.0 0.00 0.00 0.00 22 1007.3
20260503235004 91 317 1.0 2.0 0.00 0.00 0.00 23 1007.3
20260503234505 91 342 1.0 2.0 0.00 0.00 0.00 23 1007.4
20260503234004 91 342 1.0 2.0 0.00 0.00 0.00 25 1007.4
20260503233005 90 96 0.0 2.0 0.00 0.00 0.00 22 1007.6
20260503232505 90 80 2.0 2.0 0.00 0.00 0.00 25 1007.6
20260503232005 90 37 1.0 2.0 0.00 0.00 0.00 25 1007.7
20260503231504 90 6 1.0 2.0 0.00 0.00 0.00 23 1007.7
20260503231004 89 6 2.0 3.0 0.00 0.00 0.00 22 1007.7
20260503230005 89 300 1.0 2.0 0.00 0.00 0.00 24 1007.9
20260503225504 89 331 2.0 3.0 0.00 0.00 0.00 23 1008.0
20260503225004 89 303 1.0 2.0 0.00 0.00 0.00 22 1008.1
20260503224504 89 341 1.0 3.0 0.00 0.00 0.00 27 1008.2
20260503224005 89 326 1.0 2.0 0.00 0.00 0.00 25 1008.3
20260503222504 89 57 2.0 3.0 0.00 0.00 0.00 27 1008.5
20260503222005 89 9 1.0 2.0 0.00 0.00 0.00 27 1008.6
20260503221505 88 9 2.0 3.0 0.00 0.00 0.00 26 1008.6
20260503221004 88 11 1.0 2.0 0.00 0.00 0.00 29 1008.8
20260503220504 88 349 2.0 3.0 0.00 0.00 0.00 29 1008.8
20260503220004 88 88 2.0 3.0 0.00 0.00 0.00 29 1008.9
20260503215504 88 357 1.0 3.0 0.00 0.00 0.00 28 1009.0
20260503215004 88 358 2.0 5.0 0.00 0.00 0.00 29 1008.9
20260503214504 88 106 2.0 5.0 0.00 0.00 0.00 30 1009.1
20260503214004 87 70 2.0 7.0 0.00 0.00 0.00 29 1009.1
20260503213504 87 4 1.0 2.0 0.00 0.00 0.00 32 1009.1
20260503213004 87 350 1.0 5.0 0.00 0.00 0.00 31 1009.2
20260503212005 87 73 1.0 2.0 0.00 0.00 0.00 32 1009.3
20260503211504 87 23 1.0 2.0 0.00 0.00 0.00 30 1009.2
20260503211004 86 64 2.0 5.0 0.00 0.00 0.00 29 1009.3
20260503210005 86 10 2.0 5.0 0.00 0.00 0.00 33 1009.5
20260503205004 86 332 3.0 5.0 0.00 0.00 0.00 35 1009.6
20260503204504 86 39 2.0 6.0 0.00 0.00 0.00 34 1009.6
20260503204005 85 18 2.0 6.0 0.00 0.00 0.00 33 1009.6
20260503203504 85 19 2.0 3.0 0.00 0.00 0.00 34 1009.8
20260503203004 86 1 1.0 3.0 0.00 0.00 0.00 33 1009.8
20260503202505 85 41 2.0 5.0 0.00 0.00 0.00 34 1009.9
20260503202005 85 0 2.0 3.0 0.00 0.00 0.00 34 1010.0
20260503201504 85 45 1.0 2.0 0.00 0.00 0.00 33 1010.0
20260503201004 85 320 1.0 6.0 0.00 0.00 0.00 35 1010.1
20260503193005 83 60 2.0 3.0 0.00 0.00 0.00 38 1010.5
20260503192504 83 63 2.0 3.0 0.00 0.00 0.00 39 1010.6
20260503191504 82 344 1.0 3.0 0.00 0.00 0.00 42 1010.6
20260503191004 82 56 2.0 5.0 0.00 0.00 0.00 45 1010.7
20260503190005 82 15 2.0 5.0 0.00 0.00 0.00 44 1010.7
20260503185505 82 6 3.0 5.0 0.00 0.00 0.00 48 1010.8
20260503185005 82 58 1.0 3.0 0.00 0.00 0.00 46 1010.8
20260503184504 81 74 2.0 2.0 0.00 0.00 0.00 50 1010.8
20260503184004 81 56 2.0 3.0 0.00 0.00 0.00 53 1010.8
20260503183504 80 83 2.0 3.0 0.00 0.00 0.00 53 1010.8
20260503182505 78 29 1.0 3.0 0.00 0.00 0.00 56 1011.0
20260503182006 78 51 1.0 2.0 0.00 0.00 0.00 55 1011.0
20260503181505 78 74 2.0 3.0 0.00 0.00 0.00 59 1011.0
20260503181004 78 89 2.0 3.0 0.00 0.00 0.00 56 1011.0
20260503180504 77 82 2.0 3.0 0.00 0.00 0.00 59 1011.1
20260503180005 77 85 2.0 3.0 0.00 0.00 0.00 60 1011.1
20260503175504 76 91 1.0 5.0 0.00 0.00 0.00 60 1011.1
20260503175004 76 352 1.0 3.0 0.00 0.00 0.00 60 1011.2
20260503174505 76 74 1.0 3.0 0.00 0.00 0.00 61 1011.2
20260503174004 76 87 2.0 3.0 0.00 0.00 0.00 60 1011.3
20260503173504 75 73 2.0 3.0 0.00 0.00 0.00 60 1011.3
20260503173004 75 42 1.0 3.0 0.00 0.00 0.00 62 1011.3
20260503172505 74 96 2.0 5.0 0.00 0.00 0.00 63 1011.3
20260503172005 74 60 1.0 3.0 0.00 0.00 0.00 64 1011.3
20260503171004 73 97 2.0 5.0 0.00 0.00 0.00 66 1011.4
20260503170504 72 65 1.0 3.0 0.00 0.00 0.00 66 1011.5
20260503151006 57 83 1.0 2.0 0.00 0.00 0.00 90 1012.0
20260503150505 57 83 2.0 2.0 0.00 0.00 0.00 90 1012.0
20260503131005 52 202 1.0 2.0 0.00 0.00 0.00 91 1011.6
20260503130505 52 202 1.0 2.0 0.00 0.00 0.00 91 1011.5
20260503110506 53 141 0.0 0.0 0.00 0.00 0.00 90 1012.1
20260503081005 56 309 0.0 1.0 0.00 0.00 0.00 88 1012.4
20260503080505 56 309 0.0 2.0 0.00 0.00 0.00 88 1012.4
20260503072506 57 251 1.0 2.0 0.00 0.00 0.00 87 1012.5
20260503072005 58 198 2.0 2.0 0.00 0.00 0.00 87 1012.5
20260503071506 58 192 1.0 1.0 0.00 0.00 0.00 86 1012.5
20260503071006 58 192 0.0 2.0 0.00 0.00 0.00 86 1012.4
20260503070505 58 192 1.0 1.0 0.00 0.00 0.00 86 1012.4
20260503055005 61 353 4.0 6.0 0.00 0.00 0.00 83 1012.1
20260503054505 61 333 3.0 5.0 0.00 0.00 0.00 83 1012.2
20260503053506 62 17 1.0 2.0 0.00 0.00 0.00 81 1012.5
20260503053005 63 190 0.0 2.0 0.00 0.00 0.00 79 1012.5
20260503052506 63 190 0.0 2.0 0.00 0.00 0.00 79 1012.4
20260503052005 63 58 1.0 2.0 0.00 0.00 0.00 79 1012.4
20260503051505 63 331 2.0 3.0 0.00 0.00 0.00 79 1012.3
20260503050505 63 333 3.0 5.0 0.00 0.00 0.00 80 1012.5
20260503050006 63 326 2.0 3.0 0.00 0.00 0.00 79 1012.6
20260503045505 63 318 2.0 3.0 0.00 0.00 0.00 79 1012.6
20260503045006 63 338 3.0 6.0 0.00 0.00 0.00 80 1012.7
20260503044505 63 327 3.0 5.0 0.00 0.00 0.00 80 1012.8
20260503044005 63 346 3.0 5.0 0.00 0.00 0.00 80 1012.7
20260503043505 63 348 3.0 6.0 0.00 0.00 0.00 79 1012.7
20260503043005 63 340 3.0 6.0 0.00 0.00 0.00 78 1012.6
20260503042505 64 323 1.0 2.0 0.00 0.00 0.00 78 1012.7
20260503042005 64 264 2.0 5.0 0.00 0.00 0.00 78 1012.7
20260503041505 64 335 3.0 7.0 0.00 0.00 0.00 78 1012.6
20260503041005 64 336 5.0 8.0 0.00 0.00 0.00 78 1012.3
20260503040505 64 334 6.0 8.0 0.00 0.00 0.00 78 1012.4
20260503040005 64 343 3.0 5.0 0.00 0.00 0.00 77 1012.5
20260503035505 64 337 3.0 5.0 0.00 0.00 0.00 76 1012.3
20260503035006 64 315 1.0 2.0 0.00 0.00 0.00 75 1012.2
20260503034505 64 283 1.0 2.0 0.00 0.00 0.00 74 1012.2
20260503034006 65 271 2.0 3.0 0.00 0.00 0.00 74 1012.2
20260503033506 65 283 0.0 2.0 0.00 0.00 0.00 73 1012.2
20260503033007 65 236 4.0 8.0 0.00 0.00 0.00 73 1012.1
20260503032505 65 195 3.0 6.0 0.00 0.00 0.00 73 1012.0
20260503032005 65 240 6.0 12.0 0.00 0.00 0.00 72 1012.0
20260503031505 65 203 8.0 14.0 0.00 0.00 0.00 72 1012.1
20260503030505 66 206 7.0 12.0 0.00 0.00 0.00 72 1012.2
20260503030005 66 200 6.0 12.0 0.00 0.00 0.00 72 1012.1
20260503025505 66 207 6.0 10.0 0.00 0.00 0.00 72 1012.1
20260503025005 66 299 5.0 12.0 0.00 0.00 0.00 72 1012.1
20260503024005 67 203 9.0 17.0 0.00 0.00 0.00 71 1012.2
20260503023505 67 201 9.0 16.0 0.00 0.00 0.00 72 1012.1
20260503023006 68 182 13.0 20.0 0.00 0.00 0.00 71 1012.0
20260503022505 68 196 9.0 20.0 0.00 0.00 0.00 70 1011.9
20260503022005 69 186 7.0 18.0 0.00 0.00 0.00 68 1011.7
20260503021505 69 194 9.0 14.0 0.00 0.00 0.00 68 1011.5
20260503021005 70 179 6.0 10.0 0.00 0.00 0.00 67 1011.2
20260503020505 70 199 6.0 9.0 0.00 0.00 0.00 66 1011.1
20260503015505 71 190 6.0 9.0 0.00 0.00 0.00 64 1011.1
20260503015005 72 155 5.0 8.0 0.00 0.00 0.00 62 1011.0
20260503014505 72 196 3.0 8.0 0.00 0.00 0.00 62 1011.1
20260503014005 72 199 2.0 7.0 0.00 0.00 0.00 62 1011.0
20260503013505 72 170 4.0 8.0 0.00 0.00 0.00 62 1011.1
20260503013006 72 174 4.0 7.0 0.00 0.00 0.00 62 1011.0
20260503012505 72 152 3.0 6.0 0.00 0.00 0.00 61 1010.9